カタログに戻る

BB 1

運用中アマチュア無線PO
NORAD 56171·PAYLOAD·🇺🇸 United States

打ち上げ Apr 2, 2023 から Vandenberg Space Force Base

Loading…

次のパス (今後24時間)

TLE

経年Source: Space-Track

元期: Sep 9, 2026, 19:12 UTC

1 56171U 23050K   26252.80000030  .00000192  00000-0  72380-4 0  9994
2 56171  81.0038 356.6747 0016175  74.2122 286.0841 14.27917555173420

AllMySatでBB 1をリアルタイム追跡

Download on the App Store